When you browse on this site, cookies collect data to enhance your experience and personalize the content and advertising you see.
Visit our Privacy Policy to learn more. By continuing to use the site, you agree to this use of cookies and data.
  • In Sweden
  • List of Countries
  • For 7 days
  • Water Temperature
  • Satellite Maps
  • Weather Map
  • Weather Widgets
  • user-avatar
    Login

    Hourly Weather Goscinna

    Today, 25 April, Thursday

    Time Temperature Precipitation Wind Pressure Humidity
    00:00 +13°C° 0 mm 5 mps 742 mmHg 80%
    01:00 +13°C° 0 mm 5 mps 742 mmHg 82%
    02:00 +12°C° 0 mm 5 mps 742 mmHg 83%
    03:00 +12°C° 0 mm 5 mps 742 mmHg 83%
    04:00 +12°C° 0 mm 5 mps 742 mmHg 84%
    05:00 +13°C° 0 mm 5 mps 742 mmHg 80%
    06:00 +15°C° 0 mm 5 mps 742 mmHg 76%
    07:00 +16°C° 0 mm 5 mps 742 mmHg 71%
    08:00 +19°C° 0 mm 5 mps 742 mmHg 65%
    09:00 +20°C° 0 mm 5 mps 742 mmHg 59%
    10:00 +22°C° 0 mm 5 mps 742 mmHg 53%
    11:00 +23°C° 0 mm 5 mps 742 mmHg 50%
    12:00 +23°C° 0 mm 5 mps 742 mmHg 48%
    13:00 +25°C° 0 mm 4 mps 742 mmHg 46%
    14:00 +25°C° 0 mm 4 mps 742 mmHg 46%
    15:00 +25°C° 0 mm 4 mps 742 mmHg 46%
    16:00 +25°C° 0 mm 4 mps 742 mmHg 46%
    17:00 +22°C° 0 mm 3 mps 742 mmHg 53%
    18:00 +21°C° 0 mm 3 mps 742 mmHg 60%
    19:00 +19°C° 0 mm 2 mps 742 mmHg 67%
    20:00 +18°C° 0 mm 2 mps 742 mmHg 68%
    21:00 +17°C° 0 mm 2 mps 742 mmHg 70%
    22:00 +17°C° 0 mm 2 mps 742 mmHg 71%
    23:00 +16°C° 0 mm 2 mps 742 mmHg 72%

    Tomorrow, 26 April, Friday

    Time Temperature Precipitation Wind Pressure Humidity
    00:00 +16°C° 0 mm 3 mps 741 mmHg 72%
    01:00 +14°C° 0 mm 3 mps 741 mmHg 73%
    02:00 +14°C° 0 mm 3 mps 741 mmHg 74%
    03:00 +14°C° 0 mm 3 mps 740 mmHg 75%
    04:00 +13°C° 0 mm 3 mps 740 mmHg 76%
    05:00 +15°C° 0 mm 4 mps 740 mmHg 72%
    06:00 +17°C° 0 mm 4 mps 740 mmHg 69%
    07:00 +19°C° 0 mm 5 mps 739 mmHg 65%
    08:00 +20°C° 0 mm 5 mps 739 mmHg 59%
    09:00 +22°C° 0 mm 5 mps 739 mmHg 52%
    10:00 +23°C° 0 mm 5 mps 738 mmHg 45%
    11:00 +25°C° 0 mm 5 mps 738 mmHg 43%
    12:00 +26°C° 0 mm 4 mps 738 mmHg 41%
    13:00 +26°C° 0 mm 4 mps 738 mmHg 40%
    14:00 +27°C° 0 mm 4 mps 737 mmHg 40%
    15:00 +27°C° 0 mm 4 mps 737 mmHg 40%
    16:00 +27°C° 0 mm 4 mps 737 mmHg 40%
    17:00 +25°C° 0 mm 4 mps 737 mmHg 45%
    18:00 +23°C° 0 mm 4 mps 736 mmHg 50%
    19:00 +22°C° 0 mm 3 mps 736 mmHg 55%
    20:00 +21°C° 0 mm 4 mps 736 mmHg 55%
    21:00 +20°C° 0 mm 4 mps 736 mmHg 55%
    22:00 +20°C° 0 mm 5 mps 736 mmHg 54%
    23:00 +19°C° 0 mm 5 mps 736 mmHg 57%

    Day after tomorrow, 27 April, Saturday

    Time Temperature Precipitation Wind Pressure Humidity
    00:00 +19°C° 0 mm 5 mps 736 mmHg 59%
    01:00 +17°C° 0 mm 6 mps 737 mmHg 62%
    02:00 +16°C° 0 mm 6 mps 737 mmHg 70%
    03:00 +16°C° 0 mm 6 mps 737 mmHg 77%
    04:00 +15°C° 0 mm 6 mps 737 mmHg 85%
    05:00 +14°C° 0 mm 6 mps 738 mmHg 82%
    06:00 +14°C° 0 mm 6 mps 738 mmHg 79%
    07:00 +13°C° 0 mm 6 mps 739 mmHg 75%
    08:00 +14°C° 0 mm 6 mps 739 mmHg 72%
    09:00 +14°C° 0 mm 7 mps 740 mmHg 69%
    10:00 +15°C° 0 mm 7 mps 740 mmHg 66%
    11:00 +15°C° 0 mm 7 mps 740 mmHg 65%
    12:00 +15°C° 0 mm 6 mps 740 mmHg 64%
    13:00 +15°C° 0 mm 6 mps 740 mmHg 64%
    14:00 +15°C° 0 mm 6 mps 740 mmHg 63%
    15:00 +15°C° 0 mm 5 mps 740 mmHg 63%
    16:00 +15°C° 0 mm 4 mps 740 mmHg 62%
    17:00 +14°C° 0 mm 4 mps 740 mmHg 65%
    18:00 +14°C° 0 mm 3 mps 740 mmHg 67%
    19:00 +14°C° 0 mm 2 mps 740 mmHg 69%
    20:00 +14°C° 0 mm 2 mps 740 mmHg 71%
    21:00 +13°C° 0 mm 2 mps 740 mmHg 73%
    22:00 +13°C° 0 mm 2 mps 741 mmHg 75%
    23:00 +12°C° 0 mm 2 mps 741 mmHg 77%

    28 April, Sunday

    Time Temperature Precipitation Wind Pressure Humidity
    00:00 +12°C° 0 mm 2 mps 741 mmHg 79%
    01:00 +12°C° 0 mm 2 mps 741 mmHg 80%
    02:00 +10°C° 0 mm 2 mps 741 mmHg 81%
    03:00 +10°C° 0 mm 3 mps 741 mmHg 82%
    04:00 +9°C° 0 mm 3 mps 741 mmHg 83%
    05:00 +9°C° 0.2 mm 3 mps 741 mmHg 81%
    06:00 +10°C° 0.2 mm 4 mps 741 mmHg 78%
    07:00 +10°C° 0.2 mm 4 mps 742 mmHg 76%
    08:00 +10°C° 0.6 mm 4 mps 742 mmHg 76%
    09:00 +10°C° 0.6 mm 4 mps 742 mmHg 77%
    10:00 +10°C° 0.6 mm 4 mps 742 mmHg 77%
    11:00 +10°C° 1.6 mm 4 mps 742 mmHg 80%
    12:00 +9°C° 1.6 mm 5 mps 742 mmHg 82%
    13:00 +9°C° 1.6 mm 5 mps 742 mmHg 85%
    14:00 +8°C° 2.6 mm 5 mps 742 mmHg 87%
    15:00 +8°C° 2.6 mm 5 mps 742 mmHg 89%
    16:00 +8°C° 2.6 mm 6 mps 742 mmHg 91%
    17:00 +8°C° 0.8 mm 5 mps 742 mmHg 91%
    18:00 +8°C° 0.8 mm 5 mps 742 mmHg 91%
    19:00 +8°C° 0.8 mm 5 mps 742 mmHg 92%
    20:00 +8°C° 0.5 mm 5 mps 742 mmHg 93%
    21:00 +8°C° 0.5 mm 4 mps 742 mmHg 95%
    22:00 +10°C° 0.5 mm 4 mps 742 mmHg 96%
    23:00 +10°C° 0.6 mm 4 mps 741 mmHg 97%

    29 April, Monday

    Time Temperature Precipitation Wind Pressure Humidity
    00:00 +10°C° 0.6 mm 3 mps 741 mmHg 97%
    01:00 +10°C° 0.6 mm 3 mps 741 mmHg 97%
    02:00 +11°C° 0.4 mm 3 mps 741 mmHg 98%
    03:00 +11°C° 0.4 mm 3 mps 741 mmHg 98%
    04:00 +11°C° 0.4 mm 3 mps 740 mmHg 98%
    05:00 +12°C° 0.3 mm 4 mps 740 mmHg 97%
    06:00 +12°C° 0.3 mm 4 mps 740 mmHg 96%
    07:00 +13°C° 0.3 mm 5 mps 740 mmHg 95%
    08:00 +13°C° 0.2 mm 5 mps 741 mmHg 94%
    09:00 +13°C° 0.2 mm 5 mps 741 mmHg 93%
    10:00 +12°C° 0.2 mm 5 mps 741 mmHg 93%
    11:00 +12°C° 0.6 mm 5 mps 741 mmHg 93%
    12:00 +10°C° 0.6 mm 6 mps 741 mmHg 92%
    13:00 +10°C° 0.6 mm 6 mps 741 mmHg 92%
    14:00 +10°C° 0.3 mm 6 mps 741 mmHg 91%
    15:00 +10°C° 0.3 mm 6 mps 741 mmHg 90%
    16:00 +10°C° 0.3 mm 6 mps 741 mmHg 88%
    17:00 +9°C° 0.1 mm 6 mps 741 mmHg 89%
    18:00 +9°C° 0.1 mm 6 mps 741 mmHg 90%
    19:00 +8°C° 0.1 mm 6 mps 741 mmHg 91%
    20:00 +8°C° 0.2 mm 6 mps 742 mmHg 91%
    21:00 +8°C° 0.2 mm 6 mps 742 mmHg 92%
    22:00 +7°C° 0.2 mm 6 mps 742 mmHg 92%
    23:00 +7°C° 0.2 mm 5 mps 742 mmHg 92%

    30 April, Tuesday

    Time Temperature Precipitation Wind Pressure Humidity
    00:00 +7°C° 0.2 mm 5 mps 743 mmHg 92%
    01:00 +7°C° 0.2 mm 5 mps 743 mmHg 92%
    02:00 +7°C° 0.1 mm 5 mps 743 mmHg 91%
    03:00 +6°C° 0.1 mm 5 mps 743 mmHg 91%
    04:00 +5°C° 0.1 mm 6 mps 743 mmHg 91%
    05:00 +5°C° 0 mm 6 mps 743 mmHg 89%
    06:00 +5°C° 0 mm 6 mps 743 mmHg 87%
    07:00 +5°C° 0 mm 6 mps 744 mmHg 86%
    08:00 +7°C° 0 mm 6 mps 744 mmHg 82%
    09:00 +8°C° 0 mm 6 mps 744 mmHg 78%
    10:00 +8°C° 0 mm 6 mps 744 mmHg 75%
    11:00 +9°C° 0 mm 6 mps 744 mmHg 71%
    12:00 +9°C° 0 mm 6 mps 744 mmHg 68%
    13:00 +10°C° 0 mm 6 mps 744 mmHg 65%
    14:00 +10°C° 0 mm 6 mps 744 mmHg 64%
    15:00 +10°C° 0 mm 5 mps 744 mmHg 64%
    16:00 +12°C° 0 mm 5 mps 744 mmHg 63%
    17:00 +11°C° 0 mm 4 mps 744 mmHg 66%
    18:00 +10°C° 0 mm 3 mps 744 mmHg 69%
    19:00 +9°C° 0 mm 2 mps 744 mmHg 72%
    20:00 +9°C° 0 mm 2 mps 744 mmHg 73%
    21:00 +8°C° 0 mm 2 mps 744 mmHg 74%
    22:00 +7°C° 0 mm 2 mps 745 mmHg 76%
    23:00 +7°C° 0 mm 2 mps 744 mmHg 75%
    Show more